date,batt_volt,AirTemp_C,Solar_kW,RH,Manual_BP,StationID,WS_ms,PTemp,WS_15min_max,Prog_Sig,Solar_Raw,Bar_mbar,Solar_MJ,Max_WS_2min,Pressure_Raw,Rain_mm,WD_15min_ave,Max_AirTemp_1min,WindDir,WS_15min_med,WS_15min_ave,Elevation_Correction
2022-10-01T00:00:29Z,13.24387,12.13559,0.0,77.79661,0,1156,5.9976,11.90828,6.3504,43690,0.0,1021.014,0.0,6.017,1019.214,0,158.648337543,12.27,172.9512,5.2234,5.19567317073,1.80078
2022-10-01T00:15:29Z,13.24387,12.40678,0.0,74.88135,0,1156,5.8212,11.77047,7.252,43690,0.0,1021.014,0.0,6.331,1019.214,0,149.811519439,12.44,147.6319,5.831,5.91131219512,1.80078
2022-10-01T00:30:30Z,13.24387,12.61017,0.0,73.69491,0,1156,6.7424,11.72529,7.742,43690,0.0,1021.014,0.0,7.428001,1019.214,0,150.82756916,12.75,151.4346,6.6444,6.57293158537,1.80078
2022-10-01T00:45:30Z,13.24387,12.61017,0.0,75.55932,0,1156,5.1744,11.74788,7.663599,43690,0.0,1021.014,0.0,7.311,1019.214,0,146.988991878,12.61,140.8688,6.2524,6.29088285366,1.80078
2022-10-01T01:00:30Z,13.24387,12.61017,0.0,76.57627,0,1156,5.3312,11.77047,7.565599,43690,0.0,1021.177,0.0,7.291,1019.376,0,147.042644626,12.61,140.7485,6.4582,6.33008286585,1.80078
2022-10-01T01:15:31Z,13.23835,12.57627,0.0,77.8305,0,1156,6.9188,11.81791,7.35,43690,0.0,1021.177,0.0,6.938,1019.376,0,147.826281261,12.61,149.2685,6.3699995,6.30044379268,1.80078
2022-10-01T01:30:31Z,13.23835,12.50848,0.0,80.50848,0,1156,7.016799,11.84051,7.6048,43690,0.0,1021.177,0.0,7.605001,1019.376,0,148.212707801,12.51,141.1095,6.1446,6.13671214634,1.80078
2022-10-01T01:45:31Z,13.23835,12.47458,0.0,80.94915,0,1156,6.9776,11.8631,7.6048,43690,0.0,1021.177,0.0,7.076,1019.376,0,149.249424103,12.58,150.7366,6.7424,6.65348284146,1.80078
2022-10-01T02:00:32Z,13.24387,12.64407,0.0,81.01695,0,1156,6.1152,11.88569,8.251599,43690,0.0,1021.014,0.0,8.25,1019.214,0,155.182412122,12.68,151.4105,7.056,7.06484373171,1.80078
2022-10-01T02:15:32Z,13.24387,12.61017,0.0,83.08474,0,1156,7.565599,11.95573,8.134,43690,0.0,1021.014,0.0,8.17,1019.214,0,151.524929485,12.61,148.739,7.0364,6.92166813415,1.80078
2022-10-01T02:30:33Z,13.23835,12.44068,0.0,83.52542,0,1156,6.7228,12.00091,8.33,43690,0.0,1021.014,0.0,7.781,1019.214,0,146.522178305,12.51,146.982,7.0658,6.92907797561,1.80078
2022-10-01T02:45:33Z,13.23835,12.47458,0.0,83.86441,0,1156,7.8008,12.04836,8.5848,43690,0.0,1021.014,0.0,8.13,1019.214,0,148.889801542,12.47,148.2336,7.35,7.28713645122,1.80078
2022-10-01T03:00:33Z,13.23835,12.33898,0.0,83.93221,0,1156,7.7028,12.04836,8.486799,43690,0.0,1020.201,0.0,8.45,1018.4,0,150.15642661,12.47,143.2034,7.1442,7.14635109756,1.80078
2022-10-01T03:15:34Z,13.23835,12.44068,0.0,83.42373,0,1156,8.134,12.04836,8.5652,43690,0.0,1020.201,0.0,8.62,1018.4,0,150.356599844,12.51,150.7125,7.3009995,7.28665832927,1.80078
2022-10-01T03:30:34Z,13.23835,12.50848,0.0,84.27118,0,1156,8.408401,12.04836,9.212,43690,0.0,1020.201,0.0,9.189999,1018.4,0,152.072693146,12.51,147.8244,7.5166,7.48839490244,1.80078
2022-10-01T03:45:35Z,13.23835,12.54237,0.0,84.1695,0,1156,8.722,12.09355,9.1532,43690,0.0,1020.201,0.0,9.15,1018.4,0,148.576042063,12.51,147.9688,8.134,8.08069731707,1.80078
2022-10-01T04:00:35Z,13.23835,12.61017,0.0,84.81356,0,1156,6.6248,12.16358,9.2512,43690,0.0,1020.77,0.0,8.08,1018.97,0,145.389247256,12.68,137.7881,7.5852,7.56799008537,1.80078
2022-10-01T04:15:35Z,13.23835,12.47458,0.0,85.8305,0,1156,7.742,12.18618,8.2908,43690,0.0,1020.77,0.0,8.13,1018.97,0,141.677247738,12.47,140.2431,7.3597995,7.34999979268,1.80078
2022-10-01T04:30:36Z,13.23835,12.44068,0.0,85.42373,0,1156,7.252,12.20877,8.8004,43690,0.0,1020.77,0.0,7.468001,1018.97,0,142.950170604,12.47,134.8759,7.467599,7.45421445122,1.80078
2022-10-01T04:45:36Z,13.23835,12.1017,0.0,86.0339,0,1156,6.2328,12.16358,7.643999,43690,0.0,1020.77,0.0,7.37,1018.97,0,141.692735374,12.34,141.7593,6.8502,6.73259984146,1.80078
2022-10-01T05:00:37Z,13.23835,12.1017,0.0,86.1017,0,1156,7.1736,12.09355,8.212401,43690,0.0,1020.608,0.0,8.37,1018.807,0,143.729711419,12.2,143.8773,6.8894,6.86764865854,1.80078
2022-10-01T05:15:37Z,13.23835,12.1017,0.0,86.50848,0,1156,7.7224,12.02351,9.1924,43690,0.0,1020.608,0.0,8.33,1018.807,0,147.199361475,12.17,152.4936,7.6146,7.57324852439,1.80078
2022-10-01T05:30:38Z,13.23835,12.27119,0.0,87.08474,0,1156,7.9576,12.00091,9.016,43690,0.0,1020.608,0.0,8.55,1018.807,0,148.247956161,12.2,151.7956,7.7517995,7.66359985366,1.80078
2022-10-01T05:45:38Z,13.23835,12.30508,0.0,87.35594,0,1156,8.33,12.00091,9.1924,43690,0.0,1020.608,0.0,9.189999,1018.807,0,150.530481429,12.37,151.7715,7.9576,7.88565341463,1.80078
2022-10-01T06:00:38Z,13.23835,12.27119,0.0,86.81356,0,1156,8.741599,12.04836,9.4864,43690,0.0,1019.631,0.0,9.019999,1017.831,0,151.4663445,12.41,157.2109,8.2026,8.15670708537,1.80078
2022-10-01T06:15:39Z,13.23835,12.50848,0.0,85.93221,0,1156,6.4484,12.09355,9.702,43690,0.0,1019.631,0.0,9.17,1017.831,0,153.055386067,12.61,156.9461,8.231999,8.23319490244,1.80078
2022-10-01T06:30:39Z,13.23835,12.61017,0.0,86.98305,0,1156,7.546,12.14099,9.4668,43690,0.0,1019.631,0.0,8.349999,1017.831,0,154.362405096,12.68,152.5417,7.8106,7.7991265122,1.80078
2022-10-01T06:45:39Z,13.23835,12.71186,0.0,87.15254,0,1156,8.82,12.25621,9.3492,43690,0.0,1019.631,0.0,9.389999,1017.831,0,152.388083253,12.71,149.437,8.2613995,8.07041935366,1.80078
2022-10-01T07:00:40Z,13.23283,12.54237,0.0,87.93221,0,1156,8.682799,12.34884,9.2708,43690,0.0,1019.875,0.0,9.229999,1018.075,0,150.269431124,12.61,144.2142,8.3594,8.16531202439,1.80078
2022-10-01T07:15:40Z,13.23835,12.67797,0.0,87.79661,0,1156,8.8984,12.39402,9.4472,43690,0.0,1019.875,0.0,8.55,1018.075,0,150.027783324,12.75,149.0037,7.996799,7.95425347561,1.80078
2022-10-01T07:30:41Z,13.23283,12.91525,0.0,88.27118,0,1156,7.996799,12.48665,8.9768,43690,0.0,1019.875,0.0,8.8,1018.075,0,149.412318562,12.85,150.8088,7.8889995,7.76183884146,1.80078
2022-10-01T07:45:41Z,13.22731,12.71186,0.0,88.23729,0,1156,8.0164,12.69677,9.113999,43690,0.0,1019.875,0.0,8.86,1018.075,0,147.685936645,12.88,146.4044,7.8302,7.79410706098,1.80078
2022-10-01T08:00:41Z,13.22731,12.77966,0.0,88.67796,0,1156,7.8008,12.83684,8.937599,43690,0.0,1018.818,0.0,8.7,1017.017,0,147.86032184,12.81,151.6753,7.6341995,7.56081929268,1.80078
2022-10-01T08:15:42Z,13.22731,12.94915,0.0,88.61017,0,1156,7.643999,12.95432,9.604,43690,0.0,1018.818,0.0,8.639999,1017.017,0,150.394413586,12.92,152.3732,7.546,7.47883395122,1.80078
2022-10-01T08:30:42Z,13.22731,12.94915,0.0,88.54238,0,1156,7.4872,13.04695,8.3496,43690,0.0,1018.818,0.0,7.448001,1017.017,0,151.892277047,13.05,154.8522,6.958,6.8858145122,1.80078
2022-10-01T08:45:43Z,13.22731,13.01695,0.0,88.1017,0,1156,7.5068,13.0718,8.643599,43690,0.0,1018.818,0.0,7.899,1017.017,0,153.763307246,12.92,152.0363,7.35,7.21542909756,1.80078
2022-10-01T09:00:43Z,13.23283,12.84746,0.0,88.06779,0,1156,7.938,12.95432,8.251599,43690,0.0,1019.55,0.0,7.722001,1017.749,0,155.480993673,12.95,143.8773,7.3793995,7.15376086585,1.80078
2022-10-01T09:15:43Z,13.23283,12.81356,0.0,89.01695,0,1156,6.389599,12.83684,8.036,43690,0.0,1019.55,0.0,7.252,1017.749,0,150.696672274,12.81,156.6332,6.7913995,6.80239495122,1.80078
2022-10-01T09:30:44Z,13.23283,12.88136,0.0,89.35594,0,1156,6.1544,12.74421,7.761599,43690,0.0,1019.55,0.0,7.056,1017.749,0,150.588210608,12.92,171.7719,6.6836,6.54138035366,1.80078
2022-10-01T09:45:44Z,13.23835,12.84746,0.0,89.15254,0,1156,6.076,12.71936,7.546,43690,0.0,1019.55,0.0,7.409,1017.749,0,149.468572179,12.85,161.7356,6.419,6.33008281707,1.80078
2022-10-01T10:00:45Z,13.23283,12.88136,0.001446956,89.45762,0,1156,6.0956,12.65158,7.252,43690,0.1012869,1018.98,7.234778e-06,7.036,1017.18,0,152.207813484,12.92,149.4851,5.9682,5.96102920732,1.80078
2022-10-01T10:15:45Z,13.23835,12.88136,0.00337623,89.8983,0,1156,6.5464,12.65158,7.6244,43690,0.2363361,1018.98,1.688115e-05,7.252,1017.18,0,147.441517051,13.02,152.6139,6.419,6.36474137805,1.80078
2022-10-01T10:30:46Z,13.23835,12.98305,0.0130226,90.0339,0,1156,6.5856,12.71936,7.565599,43690,0.9115821,1018.98,6.5113e-05,6.899,1017.18,0,144.011564824,13.05,136.5607,6.4484,6.46059014634,1.80078
2022-10-01T10:45:46Z,13.23283,13.08475,0.05160808,90.20339,0,1156,5.6056,12.92947,7.212799,43690,3.612566,1018.98,0.0002580404,6.37,1017.18,0,141.383936417,12.95,149.3407,5.9192,5.83076093902,1.80078
2022-10-01T11:00:47Z,13.22179,13.01695,0.03472694,89.8983,0,1156,5.5076,13.23446,6.7424,43690,2.430886,1019.469,0.0001736347,6.742,1017.668,0,139.596397188,13.08,134.1058,5.8212,5.78343412195,1.80078
2022-10-01T11:15:47Z,13.21627,13.05085,0.04437331,89.79661,0,1156,5.5272,13.51687,7.6048,43690,3.106132,1019.469,0.0002218665,6.938,1017.668,0,139.443053189,13.12,143.5403,6.1936,6.13862436585,1.80078
2022-10-01T11:30:48Z,13.21517,13.1831,0.04244403,89.96045,0,1156,6.6248,13.75409,8.408401,43690,2.971082,1019.469,0.0002122202,8.41,1017.668,0,143.784979658,13.29,140.3064,6.5268,6.42091207317,1.80078
2022-10-01T11:45:49Z,13.2085,13.6182,0.1880868,89.06992,0,1156,8.3496,14.06135,8.722,43690,13.16607,1019.469,0.0009404338,8.229999,1017.668,0,144.218193494,13.62,140.4122,6.8893995,6.92549254878,1.80078
2022-10-01T12:00:49Z,13.19172,13.78492,0.193833,86.3541,0,1156,6.487599,14.89953,9.3492,43690,13.56831,1019.6,0.000969165,9.51,1017.799,0,142.158632904,13.99,142.4985,7.8497995,7.81155585366,1.80078
2022-10-01T12:15:50Z,13.17875,13.94805,0.1639331,85.39515,0,1156,7.6048,15.67672,8.6632,43690,11.47532,1019.6,0.0008196654,8.189999,1017.799,0,145.062239193,14.12,135.8654,7.5362,7.43007291463,1.80078
2022-10-01T12:30:50Z,13.16765,14.08338,0.1716475,84.98818,0,1156,7.938,16.14212,9.2708,43690,12.01532,1019.6,0.0008582373,9.0,1017.799,0,147.450326374,14.12,147.9668,7.9183995,7.79099982927,1.80078
2022-10-01T12:45:51Z,13.16978,13.90422,0.1431855,86.02314,0,1156,6.272,16.26638,9.3492,43690,10.02299,1019.6,0.0007159274,8.25,1017.799,0,149.693721353,13.91,156.7444,7.7419995,7.73028757317,1.80078
2022-10-01T13:00:51Z,13.17467,14.03512,0.2429688,85.13496,0,1156,6.468,16.26638,9.1532,43690,17.00782,1018.899,0.001214844,8.51,1017.099,0,146.001998485,14.1,147.23,7.271599,7.21160463415,1.80078
2022-10-01T13:15:52Z,13.1637,14.37401,0.3017756,83.71226,0,1156,6.9776,16.46293,8.6632,43690,21.12429,1018.899,0.001508878,6.997,1017.099,0,147.40434112,14.48,152.2574,6.8992,6.94413642683,1.80078
2022-10-01T13:30:52Z,13.15229,14.40591,0.2477667,82.52353,0,1156,5.5272,17.06163,7.938,43690,17.34367,1018.899,0.001238834,6.801,1017.099,0,148.634298126,14.61,156.9661,6.321,6.1900145,1.80078
2022-10-01T13:45:53Z,13.14114,15.18303,0.6184062,79.77658,0,1156,6.9972,17.66486,7.7224,43690,43.28843,1018.899,0.003092031,7.213,1017.099,0,146.166250415,15.28,141.4711,6.6542,6.52106331707,1.80078
2022-10-01T14:00:53Z,13.11869,15.62333,0.6106853,78.99732,0,1156,7.6048,18.81707,7.938,43690,42.74797,1018.874,0.003053427,7.84,1017.073,0,144.308404348,15.69,142.5773,6.7326,6.73236087805,1.80078
2022-10-01T14:15:54Z,13.10467,15.97987,0.4072703,76.19765,0,1156,7.0952,19.57393,8.741599,43690,28.50892,1018.874,0.002036351,8.74,1017.073,0,142.035575433,16.15,147.2491,7.663599,7.61005831707,1.80078
2022-10-01T14:30:54Z,13.09258,16.38344,0.4235959,75.71974,0,1156,6.5856,20.263,8.878799,43690,29.65172,1018.874,0.00211798,9.04,1017.073,0,143.090030902,16.45,143.2265,7.6832,7.54026314634,1.80078
2022-10-01T14:45:55Z,13.09806,15.53677,0.3599436,76.02442,0,1156,8.1144,20.39629,8.937599,43690,25.19605,1018.874,0.001799718,8.349999,1017.073,0,139.781088674,15.84,140.7979,7.898799,7.72096560976,1.80078
2022-10-01T15:00:55Z,13.1091,15.29972,0.3826301,78.90285,0,1156,8.526,20.04837,9.819599,43690,26.78411,1019.349,0.001913151,8.82,1017.549,0,140.973179141,15.33,139.2591,8.281,8.24777542683,1.80078
2022-10-01T15:15:56Z,13.12013,15.36745,0.402396,80.52831,0,1156,9.3884,19.60103,9.6432,43690,28.16772,1019.349,0.00201198,9.58,1017.549,0,143.413094101,15.37,139.1149,8.6239995,8.50902908537,1.80078
2022-10-01T15:30:56Z,13.11461,15.80768,0.6169151,77.37898,0,1156,8.8396,19.44289,10.3488,43690,43.18406,1019.349,0.003084575,10.35,1017.549,0,141.483884539,16.01,141.1105,9.133599,9.02436557317,1.80078
2022-10-01T15:45:57Z,13.1091,15.977,0.6125182,78.1917,0,1156,7.2912,19.67785,10.1724,43690,42.87628,1019.349,0.003062591,10.17,1017.549,0,143.31542054,15.98,148.7082,8.9277995,8.74112167073,1.80078
2022-10-01T16:00:57Z,13.10358,16.14632,0.5884144,77.24351,0,1156,9.564799,19.9693,10.1724,43690,41.18901,1018.699,0.002942072,10.17,1016.898,0,143.747236607,16.28,142.7695,9.1042,8.96532656098,1.80078
2022-10-01T16:15:58Z,13.09255,16.41723,0.404324,73.99258,0,1156,9.505999,20.20877,10.878,43690,28.30268,1018.699,0.00202162,10.88,1016.898,0,144.796658774,16.65,141.2788,9.4374,9.3723852439,1.80078
2022-10-01T16:30:58Z,13.09255,16.4511,0.7011579,75.58419,0,1156,10.2508,20.31496,10.7408,43690,49.08106,1018.699,0.00350579,10.7,1016.898,0,144.263639671,16.48,147.8907,9.6628,9.4244924878,1.80078
2022-10-01T16:45:59Z,13.09255,16.11245,0.6804282,77.5483,0,1156,9.6824,20.47537,10.8388,43690,47.62997,1018.699,0.003402141,10.82,1016.898,0,143.786606275,16.18,142.0241,9.7902,9.54328759756,1.80078
2022-10-01T17:00:59Z,13.09806,16.14632,0.5970729,77.64989,0,1156,8.9768,20.39629,10.9172,43690,41.7951,1018.374,0.002985364,10.86,1016.573,0,145.162929647,16.01,150.4393,9.4961995,9.5232095,1.80078
2022-10-01T17:16:00Z,13.10358,15.6045,0.4240746,79.61399,0,1156,7.016799,20.15455,10.6232,43690,29.68522,1018.374,0.002120373,9.96,1016.573,0,144.579672916,15.54,156.402,9.5745995,9.44146319512,1.80078
2022-10-01T17:31:00Z,13.1091,15.33358,0.345523,79.44467,0,1156,9.5452,19.83825,10.094,43690,24.18661,1018.374,0.001727615,9.41,1016.573,0,144.306515419,15.44,137.9367,8.8984,8.90198509756,1.80078
2022-10-01T17:46:01Z,13.11461,15.16427,0.2997511,79.44467,0,1156,8.231999,19.44289,9.4668,43690,20.98257,1018.374,0.001498755,9.17,1016.573,0,143.031729123,15.3,142.6012,8.1438,8.08858503659,1.80078
2022-10-01T18:01:01Z,13.12041,15.16486,0.2834101,79.44552,0,1156,7.5068,19.02493,8.526,43690,19.83871,1018.381,0.001417051,7.664001,1016.58,0,145.544929961,15.2,147.2191,7.3892,7.23885359756,1.80078
2022-10-01T18:16:02Z,13.12804,14.86863,0.2564202,78.44182,0,1156,6.4288,18.71315,7.8204,43690,17.94941,1018.381,0.001282101,7.84,1016.58,0,144.627658126,15.11,143.3463,6.86,6.70821941463,1.80078
2022-10-01T18:31:02Z,13.14045,15.04611,0.2520822,76.96294,0,1156,7.369599,18.40363,8.134,43690,17.64576,1018.381,0.001260411,8.059999,1016.58,0,145.674631073,15.08,146.0131,7.1638,7.04189737805,1.80078
2022-10-01T18:46:03Z,13.1411,14.94576,0.2564202,79.26824,0,1156,6.0368,18.14833,7.8204,43690,17.94941,1018.381,0.001282101,7.468001,1016.58,0,143.997557432,15.08,147.0507,6.9188,6.82820959756,1.80078
2022-10-01T19:01:04Z,13.14111,14.91191,0.2511182,80.08127,0,1156,6.389599,17.99471,7.369599,43690,17.57828,1017.98,0.001255591,7.232,1016.179,0,144.701913196,14.98,147.0508,6.713,6.5569169878,1.80078
2022-10-01T19:16:04Z,13.14663,14.81028,0.2067749,81.06366,0,1156,7.056,17.84333,7.565599,43690,14.47424,1017.98,0.001033875,7.566001,1016.179,0,143.32236593,14.81,146.8584,6.8404,6.71849737805,1.80078
2022-10-01T19:31:04Z,13.14663,14.6409,0.201473,80.89428,0,1156,6.9972,17.64,8.0752,43690,14.10311,1017.98,0.001007365,8.08,1016.179,0,145.425750189,14.78,138.7049,7.154,6.979273,1.80078
2022-10-01T19:46:05Z,13.15214,14.43765,0.1860492,82.89293,0,1156,7.1932,17.36212,8.192799,43690,13.02345,1017.98,0.0009302461,8.17,1016.179,0,143.511331953,14.51,150.1775,7.3597995,7.31701434146,1.80078
2022-10-01T20:01:05Z,13.15766,14.33603,0.1629191,83.4688,0,1156,5.88,17.03679,8.1536,43690,11.40434,1018.386,0.0008145954,8.09,1016.585,0,146.388962812,14.37,144.7659,7.35,7.26777545122,1.80078
2022-10-01T20:16:06Z,13.16318,14.20136,0.1282114,83.67334,0,1156,7.212799,16.7363,8.055599,43690,8.974795,1018.386,0.0006410568,7.918,1016.585,0,147.9908391,14.34,149.843,6.7816,6.75411202439,1.80078
2022-10-01T20:31:07Z,13.16985,14.10275,0.089664,83.407,0,1156,8.3104,16.43808,9.212,43690,6.27648,1018.386,0.00044832,8.429999,1016.585,0,146.958162917,14.1,148.288,7.663599,7.51659979268,1.80078
2022-10-01T20:46:07Z,13.17536,13.93263,0.08629565,84.15116,0,1156,8.134,16.11727,8.447599,43690,6.040696,1018.386,0.0004314782,7.938,1016.585,0,148.51097932,14.2,149.248,7.016799,6.99098510976,1.80078
2022-10-01T21:01:08Z,13.17835,14.0127,0.05882205,82.30667,0,1156,7.643999,15.79872,8.8396,43690,4.117543,1018.201,0.0002941102,8.78,1016.401,0,151.362066265,13.91,145.7455,7.4773995,7.4252925,1.80078
2022-10-01T21:16:08Z,13.18971,13.77831,0.03712597,80.92161,0,1156,8.1732,15.40786,8.937599,43690,2.598818,1018.201,0.0001856298,8.92,1016.401,0,149.476034258,13.85,149.0252,7.5166,7.44465343902,1.80078
2022-10-01T21:31:09Z,13.19524,13.88004,0.03664382,80.61674,0,1156,6.6444,15.09383,8.447599,43690,2.565068,1018.201,0.0001832191,7.507001,1016.401,0,152.290225063,13.95,156.7726,6.8599995,6.91067308537,1.80078
2022-10-01T21:46:09Z,13.19524,13.81226,0.02989364,80.04066,0,1156,6.1936,14.99669,7.5068,43690,2.092555,1018.201,0.0001494682,7.056,1016.401,0,156.300234324,14.02,146.5232,6.272,6.07958526829,1.80078
2022-10-01T22:01:10Z,13.20076,13.54117,0.005303711,78.82074,0,1156,5.9584,14.7075,7.369599,43690,0.3712598,1018.724,2.651856e-05,7.193,1016.923,0,156.997694672,13.68,160.5981,5.9878,5.96031212195,1.80078
2022-10-01T22:16:10Z,13.21826,13.44344,0.0004821555,83.43548,0,1156,4.7432,14.25339,7.7028,43690,0.03375089,1018.724,2.410778e-06,6.194,1016.923,0,150.166705261,13.55,154.8352,6.027,6.03010726829,1.80078
2022-10-01T22:31:11Z,13.22503,13.38061,0.0,84.66334,0,1156,5.8016,13.84898,6.9776,43690,0.0,1018.724,0.0,7.017,1016.923,0,152.562184361,13.38,151.4084,5.7918,5.6916487561,1.80078
2022-10-01T22:46:11Z,13.23126,13.21482,0.0,83.9235,0,1156,4.4296,13.51687,6.9972,43690,0.0,1018.724,0.0,6.409,1016.923,0,151.519859366,13.38,156.3041,5.8898,5.85490240244,1.80078
2022-10-01T23:01:12Z,13.23242,13.21939,0.0,83.42223,0,1156,5.7428,13.28191,7.1344,43690,0.0,1018.562,0.0,6.468,1016.761,0,155.398410996,13.42,154.0311,5.8996,5.86900484146,1.80078
2022-10-01T23:16:12Z,13.23834,13.18642,0.0,85.5593,0,1156,4.998,13.04695,6.3308,43690,0.0,1018.562,0.0,5.645,1016.761,0,153.405117881,13.29,145.8749,4.998,5.00612682927,1.80078
2022-10-01T23:31:12Z,13.23835,13.15254,0.0,85.72882,0,1156,4.3904,12.88428,5.6448,43690,0.0,1018.562,0.0,5.057,1016.761,0,150.874633329,13.19,152.4454,4.6256,4.56990731707,1.80078
2022-10-01T23:46:13Z,13.23835,13.11865,0.0,86.50848,0,1156,4.1552,12.7668,5.1744,43690,0.0,1018.562,0.0,4.547,1016.761,0,149.122252432,13.19,140.941,4.3904,4.37032195122,1.80078
2022-10-02T00:01:13Z,13.23835,12.94915,0.0,87.59322,0,1156,4.1356,12.62673,4.5276,43690,0.0,1018.248,0.0,4.449,1016.447,0,144.349861437,12.98,147.8244,3.92,3.85187804878,1.80078
2022-10-02T00:16:14Z,13.24387,12.84746,0.0,88.33898,0,1156,4.4296,12.46406,4.3904,43690,0.0,1018.248,0.0,4.547,1016.447,0,151.759978083,12.85,151.6512,3.6946,3.66376585366,1.80078
2022-10-02T00:31:14Z,13.24939,12.74576,0.0,88.61017,0,1156,3.3124,12.32624,4.5668,43690,0.0,1018.248,0.0,3.528,1016.447,0,152.830895514,12.92,147.2949,3.6456,3.57437073171,1.80078
2022-10-02T00:46:14Z,13.25492,12.33898,0.0,89.11865,0,1156,1.6072,12.11614,3.8612,43690,0.0,1018.248,0.0,2.391,1016.447,0,160.849350088,12.34,174.7322,1.96,2.04055121951,1.80078
2022-10-02T01:01:15Z,13.26044,12.27119,0.0,90.1017,0,1156,1.4504,11.8631,3.0772,43690,0.0,1018.492,0.0,2.822,1016.692,0,176.983541602,12.34,206.8146,1.9012,1.93203414634,1.80078
2022-10-02T01:16:15Z,13.26044,12.44068,0.0,88.44068,0,1156,1.5876,11.79306,2.45,43690,0.0,1018.492,0.0,2.43,1016.692,0,321.487999585,12.54,211.9651,1.9012,1.88972682927,1.80078
2022-10-02T01:31:16Z,13.26044,12.20339,0.0,88.0,0,1156,2.4892,11.81791,2.744,43690,0.0,1018.492,0.0,2.254,1016.692,0,210.26897441,12.24,233.0966,2.0972,2.06517073171,1.80078
2022-10-02T01:46:16Z,13.26044,12.16949,0.0,88.0,0,1156,2.1952,11.84051,2.9988,43690,0.0,1018.492,0.0,2.705,1016.692,0,26.2213174874,12.17,217.7414,2.2442,2.21671219512,1.80078
2022-10-02T02:01:16Z,13.26044,12.0339,0.0,86.50848,0,1156,1.1368,11.84051,3.2144,43690,0.0,1019.55,0.0,3.214,1017.749,0,13.0591504958,12.17,189.8708,2.2442,2.24037560976,1.80078
2022-10-02T02:16:17Z,13.26044,11.93221,0.0,86.77966,0,1156,0.882,11.84051,3.1556,43690,0.0,1019.55,0.0,1.196,1017.749,0,36.3346505742,11.97,35.30746,1.7444,1.71858536341,1.80078
2022-10-02T02:31:17Z,13.26044,11.59322,0.0,88.0,0,1156,2.2932,11.79306,2.7832,43690,0.0,1019.55,0.0,2.607,1017.749,0,49.5145869045,11.63,57.93119,1.2936,1.29168779756,1.80078
2022-10-02T02:46:18Z,13.26044,11.18644,0.0,89.79661,0,1156,2.5284,11.77047,3.332,43690,0.0,1019.55,0.0,2.548,1017.749,0,74.7141835349,11.29,80.72339,2.3716,2.35343414634,1.80078
2022-10-02T03:01:18Z,13.26596,11.15254,0.0,90.30509,0,1156,2.6656,11.65525,2.9596,43690,0.0,1019.306,0.0,2.901,1017.505,0,77.3207679611,11.32,83.61153,1.9894,2.04748292683,1.80078
2022-10-02T03:16:18Z,13.26596,11.25424,0.0,90.0339,0,1156,1.0192,11.56488,2.6852,43690,0.0,1019.306,0.0,2.019,1017.505,0,81.4659246271,11.39,91.65017,1.3916,1.40665852927,1.80078
2022-10-02T03:31:19Z,13.27148,11.55962,0.0,87.8649,0,1156,2.646,11.49485,5.0372,43690,0.0,1019.306,0.0,5.116,1017.505,0,72.5348738805,11.56,86.78896,2.0286,2.32761950976,1.80078
2022-10-02T03:46:19Z,13.26605,11.62714,0.0,83.11868,0,1156,2.7048,11.56488,4.4688,43690,0.0,1019.306,0.0,2.568,1017.505,0,71.4121397181,11.63,58.62917,2.4402,2.52792195122,1.80078
2022-10-02T04:01:20Z,13.26046,11.72884,0.0,81.86444,0,1156,2.058,11.6801,5.3508,43690,0.0,1018.899,0.0,5.292,1017.098,0,66.9984245343,11.76,68.56918,2.6264,2.7392195122,1.80078
2022-10-02T04:16:20Z,13.26044,11.45765,0.0,82.7119,0,1156,0.7644,11.79306,5.7036,43690,0.0,1018.899,0.0,3.548,1017.098,0,61.8336487777,11.56,66.57155,2.9498,3.08126341341,1.80078
2022-10-02T04:31:20Z,13.26044,11.38985,0.0,82.20342,0,1156,3.8416,11.8631,4.1552,43690,0.0,1018.899,0.0,2.999,1017.098,0,58.1878396203,11.46,18.26746,2.2638,2.27431707195,1.80078
2022-10-02T04:46:21Z,13.26044,11.22036,0.0,83.38987,0,1156,1.1368,11.90828,4.8804,43690,0.0,1018.899,0.0,4.488,1017.098,0,58.0790077151,11.25,70.63901,2.8126,2.84247804878,1.80078
2022-10-02T05:01:21Z,13.26044,10.88138,0.0,83.76275,0,1156,5.0764,11.93314,6.566,43690,0.0,1019.794,0.0,5.018,1017.993,0,60.230201999,11.02,64.93494,3.038,3.22802439024,1.80078
2022-10-02T05:16:22Z,13.26596,10.57629,0.0,84.23733,0,1156,2.2148,11.8631,5.8604,43690,0.0,1019.794,0.0,3.94,1017.993,0,59.6145269308,10.64,58.99019,3.0282,3.12596097561,1.80078
2022-10-02T05:31:22Z,13.26596,10.4068,0.0,84.61021,0,1156,2.3912,11.81791,5.4096,43690,0.0,1019.794,0.0,3.214,1017.993,0,59.7501335298,10.47,66.3068,2.4206,2.67085853659,1.80078
2022-10-02T05:46:22Z,13.27148,10.00002,0.0,86.20343,0,1156,2.9792,11.74788,5.0568,43690,0.0,1019.794,0.0,5.057,1017.993,0,59.7151256314,10.2,60.81934,2.6068,2.57309755976,1.80078
2022-10-02T06:01:23Z,13.27148,10.13562,0.0,87.18648,0,1156,2.1364,11.63266,4.312,43690,0.0,1020.526,0.0,3.214,1018.726,0,62.2477451257,10.2,45.87323,2.0972,2.15504390122,1.80078
2022-10-02T06:16:23Z,13.27148,10.13562,0.0,87.96614,0,1156,3.1752,11.56488,3.332,43690,0.0,1020.526,0.0,2.862,1018.726,0,58.3523118242,10.2,65.5607,2.1364,2.21527804878,1.80078
2022-10-02T06:31:24Z,13.277,9.728901,0.0,89.0171,0,1156,5.684,11.38188,6.8992,43690,0.0,1020.526,0.0,6.331,1018.726,0,59.4548455693,9.76,61.95062,3.8514,4.01130731707,1.80078
2022-10-02T06:46:24Z,13.28427,9.225494,0.0,85.50048,0,1156,5.2136,11.15144,9.525599,43690,0.0,1020.526,0.0,6.605,1018.726,0,62.3722101244,9.29,62.8476,4.9098,5.14762921951,1.80078
2022-10-02T07:01:25Z,13.28656,9.13438,0.0,83.92518,0,1156,3.92,10.99329,6.5072,43690,0.0,1021.015,0.0,6.507,1019.215,0,64.1416295667,9.24,69.55413,4.4884,4.5424195,1.80078
2022-10-02T07:16:25Z,13.29253,9.067455,0.0,81.92603,0,1156,3.4496,10.83288,5.5468,43690,0.0,1021.015,0.0,4.39,1019.215,0,67.005412329,9.2,71.72225,3.7632,3.68360487805,1.80078
2022-10-02T07:31:25Z,13.29806,9.033562,0.0,80.26448,0,1156,2.3324,10.67473,7.3892,43690,0.0,1021.015,0.0,4.704,1019.215,0,66.4845319017,9.07,67.19598,4.116,4.16906341463,1.80078